This is the latest recevied weather packets stored in our database for station/object K8JCL-13. If no packets are shown the sender has not sent any weather packets the latest 10 day(s).
| Time | Temp. | Humidity | Pressure | Rain* | Wind** | Luminosity | Snow |
|---|---|---|---|---|---|---|---|
| 1777605081 | 7.22° C | 77% | 1015.5 hPa | 0 mm | - | 0 W/m² | - |
| 1777604777 | 7.78° C | 78% | 1015.9 hPa | 0 mm | - | 0 W/m² | - |
| 1777604474 | 7.78° C | 77% | 1015.8 hPa | 0 mm | - | 0 W/m² | - |
| 1777604174 | 7.78° C | 77% | 1016 hPa | 0 mm | - | 0 W/m² | - |
| 1777603870 | 7.78° C | 77% | 1015.8 hPa | 0 mm | - | 0 W/m² | - |
| 1777603566 | 7.78° C | 77% | 1015.8 hPa | 0 mm | - | 0 W/m² | - |
| 1777603262 | 7.78° C | 77% | 1016 hPa | 0 mm | - | 0 W/m² | - |
| 1777602952 | 7.78° C | 77% | 1015.9 hPa | 0 mm | - | 0 W/m² | - |
| 1777602648 | 7.78° C | 76% | 1016 hPa | 0 mm | - | 0 W/m² | - |
| 1777602343 | 7.78° C | 75% | 1015.7 hPa | 0 mm | - | 0 W/m² | - |
| 1777602039 | 7.78° C | 75% | 1015.7 hPa | 0 mm | - | 0 W/m² | - |
| 1777601734 | 8.33° C | 72% | 1015.9 hPa | 0 mm | - | 0 W/m² | - |
| 1777601429 | 8.89° C | 75% | 1015.9 hPa | 0 mm | - | 0 W/m² | - |
| 1777601126 | 8.89° C | 74% | 1015.9 hPa | 0 mm | - | 0 W/m² | - |
| 1777600823 | 8.89° C | 75% | 1015.8 hPa | 0 mm | - | 0 W/m² | - |
| 1777600518 | 8.33° C | 76% | 1015.8 hPa | 0 mm | - | 0 W/m² | - |
| 1777600215 | 8.33° C | 76% | 1015.7 hPa | 0 mm | - | 0 W/m² | - |
| 1777599910 | 7.78° C | 77% | 1015.5 hPa | 0 mm | - | 0 W/m² | - |
| 1777599607 | 8.33° C | 75% | 1015.5 hPa | 0 mm | - | 0 W/m² | - |
| 1777599304 | 8.33° C | 73% | 1015.4 hPa | 0 mm | - | 0 W/m² | - |
| 1777599000 | 8.33° C | 75% | 1015.5 hPa | 0 mm | - | 0 W/m² | - |
| 1777598697 | 8.89° C | 76% | 1015.4 hPa | 0 mm | - | 0 W/m² | - |
| 1777598393 | 8.89° C | 76% | 1015.7 hPa | 0 mm | - | 0 W/m² | - |
| 1777598092 | 8.89° C | 74% | 1015.3 hPa | 0 mm | - | 0 W/m² | - |
| 1777597791 | 8.89° C | 75% | 1015.4 hPa | 0 mm | - | 0 W/m² | - |
* Rain latest hour (hover to see other rain measurements)
** Current wind speed in m/s (hover to see current wind gust speed)